Weather History for KBCE - March, 2013

Change the Weather History Date:

Wednesday, March 27, 2013

  Actual Average Record
Temperature  
Mean Temperature 37 °F -  
Max Temperature 57 °F 46 °F 66 °F (2015)
Min Temperature 19 °F 21 °F 5 °F (1975)
Degree Days  
Heating Degree Days 28    
Moisture  
Dew Point 15 °F    
Average Humidity 47    
Maximum Humidity 88    
Minimum Humidity 13    
Precipitation  
Precipitation 0.00 in - - ()
Sea Level Pressure  
Sea Level Pressure 29.91 in    
Wind  
Wind Speed 5 mph (SW)    
Max Wind Speed 16 mph    
Max Gust Speed 24 mph    
Visibility 10 miles    
Events      
Averages and records for this station are not official NWS values.
T = Trace of Precipitation, MM = Missing Value Source: NWS Daily Summary

Daily Weather History Graph

Daily Weather History Graph

Search for Another Location

Airport or City:

Trip Planner

Search our weather history database for the weather conditions in past years. The results will help you decide how hot, cold, wet, or windy it might be!

Date:

Astronomy

Mar. 27, 2013 Rise Set
Actual Time 7:20 AM MDT 7:47 PM MDT
Civil Twilight 6:54 AM MDT 8:13 PM MDT
Nautical Twilight 6:23 AM MDT 8:44 PM MDT
Astronomical Twilight 5:52 AM MDT 9:16 PM MDT
Moon 8:33 PM MDT (3/27) 7:15 AM MDT (3/27)
Length of Visible Light 13h 18m
Length of Day
12h 26m
Full, 100% of the Moon is Illuminated
Mar 27
Full
Apr 2
Last Quarter
Apr 10
New
Apr 18
First Quarter
Apr 25
Full

Hourly Weather History & Observations

Time (MDT) Temp. Windchill Dew Point Humidity Pressure Visibility Wind Dir Wind Speed Gust Speed Precip Events Conditions
12:53 AM 21.9 °F 17.2 °F 16.0 °F 78% 29.90 in 10.0 mi WSW 3.5 mph - N/A   Clear
1:53 AM 24.1 °F 15.2 °F 17.1 °F 75% 29.88 in 10.0 mi West 8.1 mph - N/A   Clear
2:53 AM 24.1 °F 19.7 °F 17.1 °F 75% 29.86 in 10.0 mi WSW 3.5 mph - N/A   Clear
3:53 AM 25.0 °F 20.7 °F 16.0 °F 69% 29.85 in 10.0 mi NW 3.5 mph - N/A   Clear
4:53 AM 19.0 °F - 15.1 °F 85% 29.89 in 10.0 mi Calm Calm - N/A   Clear
5:53 AM 19.0 °F - 16.0 °F 88% 29.90 in 10.0 mi Calm Calm - N/A   Clear
6:53 AM 21.0 °F - 16.0 °F 81% 29.93 in 10.0 mi Calm Calm - N/A   Clear
7:53 AM 23.0 °F - 18.0 °F 81% 29.96 in 10.0 mi Calm Calm - N/A   Clear
8:53 AM 34.0 °F 29.8 °F 19.0 °F 54% 29.94 in 10.0 mi West 4.6 mph - N/A   Clear
9:53 AM 43.0 °F - 17.1 °F 35% 29.91 in 10.0 mi Calm Calm - N/A   Clear
10:53 AM 50.0 °F - 16.0 °F 26% 29.91 in 10.0 mi SSE 11.5 mph - N/A   Scattered Clouds
11:53 AM 52.0 °F - 16.0 °F 24% 29.92 in 10.0 mi SE 11.5 mph 16.1 mph N/A   Clear
12:53 PM 52.0 °F - 16.0 °F 24% 29.94 in 10.0 mi SSE 13.8 mph 19.6 mph N/A   Scattered Clouds
1:53 PM 54.0 °F - 12.9 °F 20% 29.91 in 10.0 mi WSW 8.1 mph - N/A   Partly Cloudy
2:53 PM 55.9 °F - 10.0 °F 16% 29.88 in 10.0 mi SSW 9.2 mph 20.7 mph N/A   Clear
3:53 PM 55.9 °F - 5.0 °F 13% 29.86 in 10.0 mi SSW 8.1 mph 24.2 mph N/A   Clear
4:53 PM 55.0 °F - 7.0 °F 15% 29.90 in 10.0 mi South 16.1 mph - N/A   Clear
5:53 PM 52.0 °F - 14.0 °F 22% 29.92 in 10.0 mi SSW 10.4 mph - N/A   Clear
6:53 PM 51.1 °F - 14.0 °F 23% 29.93 in 10.0 mi South 6.9 mph - N/A   Scattered Clouds
7:53 PM 48.0 °F - 10.9 °F 22% 29.93 in 10.0 mi SSW 8.1 mph - N/A   Clear
8:53 PM 39.0 °F - 17.1 °F 41% 29.94 in 10.0 mi Calm Calm - N/A   Clear
9:53 PM 36.0 °F 29.0 °F 19.0 °F 50% 29.92 in 10.0 mi West 9.2 mph - N/A   Clear
10:53 PM 34.0 °F 31.0 °F 19.9 °F 56% 29.92 in 10.0 mi ENE 3.5 mph - N/A   Clear
11:53 PM 33.1 °F 28.7 °F 19.0 °F 56% 29.92 in 10.0 mi WSW 4.6 mph - N/A   Clear